Regional Weather Roundup
Issued by NWS

Home | Current Version | Previous Version | Text Only | Print | Product List | Glossary Off
Versions: 1 2 3 4 5 6 7 8 9 10 11 12 13 14 15 16 17 18 19 20 21 22 23 24 25 26 27 28 29 30 31 32 33 34 35 36 37 38 39 40 41 42 43 44 45 46 47 48 49 50

000
ASUS43 KLOT 240503
RWRIL

ILLINOIS REGIONAL WEATHER ROUNDUP
NATIONAL WEATHER SERVICE CHICAGO/ROMEOVILLE IL
1100 PM CST MON JAN 23 2017

NOTE: "FAIR" INDICATES FEW OR NO CLOUDS BELOW 12,000 FEET WITH NO
SIGNIFICANT WEATHER AND/OR OBSTRUCTIONS TO VISIBILITY.

* THESE STATIONS ARE NOT UNDER NWS QUALITY CONTROL. THEY ALSO MAY NOT
  REPORT WEATHER SUCH AS PRECIPITATION OR FOG.

ILZ001-002-007-009-015-016-024-240600-
NORTHWEST ILLINOIS

CITY           SKY/WX    TMP DP  RH WIND       PRES   REMARKS
MOLINE         CLOUDY    35  31  85 W6        29.86S WCI  30
STERLING*      CLOUDY    36  34  92 W6        29.85S WCI  31
SAVANNA*       CLOUDY    34  33  94 W3        29.86R
$$

ILZ003-004-008-010-011-017-018-240600-
NORTH CENTRAL ILLINOIS

CITY           SKY/WX    TMP DP  RH WIND       PRES   REMARKS
ROCKFORD       CLOUDY    37  33  85 NW5       29.84S WCI  33
FREEPORT*      CLOUDY    34  32  92 CALM      29.85S
ROCHELLE*      CLOUDY    36  34  94 NW3       29.84R
DE KALB*       CLOUDY    35  34  96 NW5       29.82S WCI  31
PERU*          CLOUDY    36  32  86 NW6       29.85R WCI  31
$$

ILZ005-006-012>014-019>023-240600-
NORTHEAST ILLINOIS

CITY           SKY/WX    TMP DP  RH WIND       PRES   REMARKS
CHICAGO-OHARE  CLOUDY    38  35  89 N6        29.81R WCI  33
CHICAGO-MIDWAY CLOUDY    40  34  79 N7        29.81R
AURORA         CLOUDY    36  34  92 NW3       29.82S
LANSING*       CLOUDY    40  37  89 NW5       29.81S
JOLIET*        CLOUDY    40  37  89 CALM      29.82S
WAUKEGAN       CLOUDY    38  35  89 NW3       29.80S
DUPAGE AIRPORT CLOUDY    39  33  79 N8        29.81S WCI  33
KANKAKEE*      CLOUDY    40  33  76 CALM      29.82S
WHEELING       CLOUDY    38  34  85 N6        29.82F WCI  33
MORRIS*        CLOUDY    37  36  93 CALM      29.82R
ROMEOVILLE*    CLOUDY    39  37  93 NW5       29.82R
NORTHERLY ISL    N/A     40  33  76 W6          N/A
$$

LMZ740>746-240600-
SOUTHERN LAKE MICHIGAN

STATION/POSITION SKY/WX   TEMP    WIND        PRES    VSBY  WAVE
                          AIR SEA DIR/SP/G                  HT/PER
                          (F)     (DEG/KT/KT) (MB)    (MI)  (FT/S)
HARRISON CRIB              38     340/ 11/ 11   N/A
BURNHAM HARBOR             40     320/  4/  8   N/A
CALUMET HARBOR             39     330/  4/  6 1009.1R
BURNS HARBOR               36     340/ 10/ 12 1009.8F
MICHIGAN CITY              37     300/ 12/ 13   N/A
$$

ILZ025>027-034>036-040-047-049-050-058-095>099-240600-
WEST-CENTRAL ILLINOIS

CITY           SKY/WX    TMP DP  RH WIND       PRES   REMARKS
QUINCY         CLOUDY    35  30  82 N5        29.87S WCI  31
GALESBURG*     CLOUDY    33  32  96 W5        29.87R WCI  28
MACOMB*        CLOUDY    35  33  92 NW5       29.89R WCI  31
JACKSONVILLE*  CLOUDY    36  32  85 W3        29.88R
PITTSFIELD*    CLOUDY    36  32  86 W3        29.90R
$$

ILZ028>032-037-038-041>044-048-051>054-059>061-240600-
CENTRAL ILLINOIS

CITY           SKY/WX    TMP DP  RH WIND       PRES   REMARKS
PONTIAC        CLOUDY    38  38 100 NW6       29.84S WCI  34
BLOOMINGTON    CLOUDY    38  35  89 NW6       29.84S WCI  33
DECATUR        CLOUDY    40  35  83 NW7       29.85R
PEORIA         CLOUDY    38  35  89 NW3       29.86R
LACON*         CLOUDY    37  36  96 CALM      29.85S
LINCOLN*       CLOUDY    39  37  93 CALM      29.86S
SPRINGFIELD    CLOUDY    40  34  79 W3        29.87R
TAYLORVILLE    CLOUDY    38  34  85 W6        29.86S WCI  34
$$

ILZ033-039-045-046-055>057-062-063-240600-
EAST-CENTRAL ILLINOIS

CITY           SKY/WX    TMP DP  RH WIND       PRES   REMARKS
CHAMPAIGN      CLOUDY    39  36  89 NW6       29.83S WCI  35
RANTOUL*       CLOUDY    40  39  94 NW7       29.83S
MATTOON        CLOUDY    39  36  89 NW6       29.84R WCI  35
PARIS*         CLOUDY    39  37  90 NW7       29.83S WCI  34
$$

ILZ079-100>102-240600-
SOUTHWEST ILLINOIS

CITY           SKY/WX    TMP DP  RH WIND       PRES   REMARKS
ALTON          CLOUDY    38  33  82 W6        29.89R WCI  33
BELLEVILLE     CLOUDY    40  33  78 NW6       29.88R
CAHOKIA*       CLOUDY    41  32  70 N7        29.88R
SPARTA*        CLOUDY    39  32  77 N5        29.90R
$$

ILZ064>066-069>071-074>076-080>082-084>086-088>090-092>094-240600-
SOUTH-CENTRAL ILLINOIS

CITY           SKY/WX    TMP DP  RH WIND       PRES   REMARKS
CARBONDALE     CLOUDY    41  36  82 N5        29.88R
CAIRO*         CLEAR     34  32  94 CALM      29.88R
EFFINGHAM*     CLOUDY    41  37  84 NW8       29.88R
MARION         CLOUDY    41  36  81 N7        29.89S
MT. VERNON     CLOUDY    40  34  79 VRB3      29.88R
CENTRALIA*     CLOUDY    40  36  83 NW7       29.87S
SALEM*         CLOUDY    41  35  77 NW6       29.88R
METROPOLIS*    CLOUDY    42  35  76 CALM      29.88S
$$

ILZ067-068-072-073-078-083-087-091-240600-
SOUTHEAST ILLINOIS

CITY           SKY/WX    TMP DP  RH WIND       PRES   REMARKS
LAWRENCEVILLE  CLOUDY    40  36  86 N12       29.85R
FLORA*         CLOUDY    42  36  78 NW3       29.87R
FAIRFIELD*     CLOUDY    41  35  77 NW3       29.86R
HARRISBURG*    CLOUDY    41  36  81 N5        29.88R
ROBINSON*      CLOUDY    39  35  84 N8        29.86R WCI  34
CARMI*         CLOUDY    41  36  81 NW9       29.86S
$$

ABBREVIATIONS USED IN REMARKS
   TC - TEMPERATURE IN CELSIUS
  WCI - WIND CHILL INDEX
   HX - HEAT INDEX
  VSB - VISIBILITY
$$




USA.gov is the U.S. government's official web portal to all federal, state and local government web resources and services.